Met observations

Date (UTC) Wind direction m/s kts. Vis. * Weather * Cloud * Temperature (°C) Dew point (°C) Air pressure (Hp)
15-04 21:25 9 17 VIS 10 km SCT 800ft BKN 1200ft 6.9 6.2 1025.5
15-04 21:15 9 17 VIS 10 km SCT 800ft BKN 1200ft 6.8 6.2 1025.5
15-04 21:05 9 17 VIS 10 km SCT 800ft BKN 1200ft 6.9 6.3 1025.5
15-04 20:55 10 20 VIS 10 km SCT 800ft BKN 1200ft 7.0 6.4 1025.6
15-04 20:45 10 19 VIS 10 km SCT 800ft BKN 1200ft 7.0 6.3 1025.5
15-04 20:35 9 17 VIS 10 km SCT 800ft BKN 1200ft 7.0 6.4 1025.6
15-04 20:25 9 18 VIS 10 km SCT 800ft BKN 1200ft 7.1 6.5 1025.6
15-04 20:15 9 17 VIS 10 km SCT 800ft BKN 1200ft 7.1 6.6 1025.7
15-04 20:05 9 18 VIS 10 km SCT 800ft BKN 1200ft 7.2 6.6 1025.7
15-04 19:55 11 22 VIS 10 km SCT 800ft BKN 1200ft 7.2 6.7 1025.7
15-04 19:45 10 20 VIS 10 km SCT 800ft BKN 1200ft 7.2 6.7 1025.6
15-04 19:35 9 17 VIS 10 km SCT 800ft BKN 1200ft 7.2 6.8 1025.6
15-04 19:25 9 18 VIS 10 km SCT 800ft BKN 1200ft 7.3 6.9 1025.7
15-04 19:15 9 18 VIS 10 km SCT 800ft BKN 1200ft 7.3 6.9 1025.7
15-04 19:05 8 16 VIS 10 km SCT 800ft BKN 1200ft 7.3 6.9 1025.7
15-04 18:55 9 17 VIS 10 km SCT 800ft BKN 1200ft 7.4 7.0 1025.9
15-04 18:45 9 18 VIS 10 km SCT 800ft BKN 1200ft 7.4 6.9 1026.0
15-04 18:35 9 17 VIS 10 km SCT 800ft BKN 1200ft 7.5 7.0 1026.0
15-04 18:25 9 18 VIS 10 km SCT 800ft BKN 1200ft 7.5 7.0 1026.0
15-04 18:15 8 16 VIS 10 km SCT 800ft BKN 1200ft 7.6 7.0 1026.1
15-04 18:05 9 17 VIS 10 km SCT 800ft BKN 1200ft 7.7 7.2 1026.2
15-04 17:55 9 18 VIS 10 km SCT 800ft BKN 1200ft 7.8 7.1 1026.4
15-04 17:45 9 18 VIS 10 km SCT 800ft BKN 1200ft 7.8 7.0 1026.4
15-04 17:35 10 19 VIS 10 km SCT 800ft BKN 1200ft 7.8 7.0 1026.5
15-04 17:25 10 19 VIS 10 km SCT 800ft BKN 1200ft 8.0 7.0 1026.5
15-04 17:15 10 20 VIS 10 km SCT 800ft BKN 1200ft 7.8 6.8 1026.5
15-04 17:05 9 18 VIS 10 km SCT 800ft BKN 1200ft 8.0 7.0 1026.6
15-04 16:55 11 21 VIS 10 km SCT 800ft BKN 1200ft 8.5 7.3 1026.7
15-04 16:45 10 20 VIS 10 km SCT 800ft BKN 1200ft 8.5 7.1 1026.8
15-04 16:35 9 18 VIS 10 km SCT 800ft BKN 1200ft 8.4 7.1 1026.8
15-04 16:25 9 18 VIS 10 km SCT 800ft BKN 1200ft 8.0 6.9 1027.0
15-04 16:15 8 15 VIS 10 km SCT 800ft BKN 1200ft 7.9 6.6 1027.1
15-04 16:05 8 16 VIS 10 km SCT 800ft BKN 1200ft 8.3 6.8 1027.2
15-04 15:55 7 14 VIS 10 km SCT 800ft BKN 1200ft 8.6 7.1 1027.3
15-04 15:45 8 15 VIS 10 km SCT 800ft BKN 1200ft 9.2 7.2 1027.5
15-04 15:35 7 14 VIS 10 km SCT 800ft BKN 1200ft 8.6 7.1 1027.6
15-04 15:25 8 15 VIS 10 km SCT 800ft BKN 1200ft 8.7 7.0 1027.8
15-04 15:15 9 17 VIS 10 km SCT 800ft BKN 1200ft 8.9 7.0 1027.9
15-04 15:05 10 19 VIS 10 km SCT 800ft BKN 1200ft 8.9 7.0 1028.0
15-04 14:55 9 18 VIS 10 km SCT 800ft BKN 1200ft 9.2 7.2 1028.0
15-04 14:45 8 16 VIS 10 km SCT 800ft BKN 1200ft 9.2 7.7 1028.2
15-04 14:35 9 18 VIS 10 km SCT 800ft BKN 1200ft 8.9 7.3 1028.2
15-04 14:25 9 17 VIS 10 km SCT 800ft BKN 1200ft 8.7 7.3 1028.3
15-04 14:15 10 19 VIS 10 km SCT 800ft BKN 1200ft 8.6 7.3 1028.4
15-04 14:05 9 18 VIS 10 km SCT 800ft BKN 1200ft 8.8 7.7 1028.4
15-04 13:55 9 17 VIS 10 km SCT 800ft BKN 1200ft 8.6 7.2 1028.5
15-04 13:45 10 20 VIS 10 km SCT 800ft BKN 1200ft 8.4 7.3 1028.4
15-04 13:35 8 16 VIS 10 km SCT 800ft BKN 1200ft 8.4 7.1 1028.5
15-04 13:25 9 18 VIS 10 km SCT 800ft BKN 1200ft 8.4 7.3 1028.6
15-04 13:15 8 16 VIS 10 km SCT 800ft BKN 1200ft 8.6 7.3 1028.6
15-04 13:05 8 16 VIS 10 km SCT 800ft BKN 1200ft 8.8 7.9 1028.7
15-04 12:55 8 16 VIS 10 km SCT 800ft BKN 1200ft 8.1 7.2 1028.8
15-04 12:45 8 15 VIS 10 km SCT 800ft BKN 1200ft 8.1 7.1 1028.9
15-04 12:35 8 16 VIS 10 km SCT 800ft BKN 1200ft 7.8 7.1 1028.9
15-04 12:25 8 15 VIS 10 km SCT 800ft BKN 1200ft 7.9 7.3 1028.9
15-04 12:15 8 15 VIS 10 km SCT 800ft BKN 1200ft 7.6 7.0 1029.0
15-04 12:05 7 14 VIS 10 km SCT 800ft BKN 1200ft 7.7 7.1 1029.0
15-04 11:55 7 13 VIS 10 km SCT 800ft BKN 1200ft 7.9 7.3 1029.1
15-04 11:45 6 12 VIS 10 km SCT 800ft BKN 1200ft 7.8 7.2 1029.1
15-04 11:35 7 14 VIS 10 km SCT 800ft BKN 1200ft 7.6 7.0 1029.2
15-04 11:25 7 13 VIS 10 km SCT 800ft BKN 1200ft 7.6 7.0 1029.3
15-04 11:15 7 14 VIS 10 km SCT 800ft BKN 1200ft 8.1 7.4 1029.4
15-04 11:05 7 13 VIS 10 km SCT 800ft BKN 1200ft 8.0 7.3 1029.4
15-04 10:55 7 13 VIS 10 km SCT 800ft BKN 1200ft 8.1 7.3 1029.4
15-04 10:45 7 13 VIS 10 km SCT 800ft BKN 1200ft 8.0 7.1 1029.4
15-04 10:35 6 12 VIS 10 km SCT 800ft BKN 1200ft 8.0 7.2 1029.5
15-04 10:25 6 11 VIS 10 km SCT 800ft BKN 1200ft 8.0 7.2 1029.6
15-04 10:15 6 12 VIS 10 km SCT 800ft BKN 1200ft 7.7 7.0 1029.5
15-04 10:05 6 11 VIS 10 km SCT 800ft BKN 1200ft 7.7 7.0 1029.5
15-04 09:55 7 13 VIS 10 km SCT 800ft BKN 1200ft 7.6 7.0 1029.5
15-04 09:45 7 13 VIS 10 km SCT 800ft BKN 1200ft 7.5 6.9 1029.5
15-04 09:35 6 11 VIS 10 km SCT 800ft BKN 1200ft 7.4 6.9 1029.5
15-04 09:25 5 10 VIS 10 km SCT 800ft BKN 1200ft 7.2 6.7 1029.6
15-04 09:15 5 10 VIS 10 km SCT 800ft BKN 1200ft 7.2 6.7 1029.6
15-04 09:05 4 08 VIS 10 km SCT 800ft BKN 1200ft 7.2 6.6 1029.7
15-04 08:55 6 11 VIS 10 km SCT 800ft BKN 1200ft 7.2 6.7 1029.7
15-04 08:45 6 11 VIS 10 km SCT 800ft BKN 1200ft 6.9 6.5 1029.6
15-04 08:35 5 10 VIS 10 km SCT 800ft BKN 1200ft 6.9 6.4 1029.8
15-04 08:25 6 11 VIS 10 km SCT 800ft BKN 1200ft 6.9 6.5 1029.8
15-04 08:15 6 12 VIS 10 km SCT 800ft BKN 1200ft 6.9 6.5 1029.7
15-04 08:05 5 10 VIS 10 km SCT 800ft BKN 1200ft 6.8 6.5 1029.7
15-04 07:55 4 08 VIS 10 km SCT 800ft BKN 1200ft 6.7 6.5 1029.8
15-04 07:45 5 09 VIS 10 km SCT 800ft BKN 1200ft 6.7 6.5 1029.8
15-04 07:35 4 08 VIS 10 km SCT 800ft BKN 1200ft 6.6 6.4 1029.8
15-04 07:25 4 08 VIS 10 km SCT 800ft BKN 1200ft 6.7 6.5 1029.8
15-04 07:15 5 10 VIS 10 km SCT 800ft BKN 1200ft 6.8 6.5 1029.8
15-04 07:05 5 10 VIS 10 km SCT 800ft BKN 1200ft 6.7 6.5 1029.7
15-04 06:55 6 11 VIS 10 km SCT 800ft BKN 1200ft 6.7 6.5 1029.6
15-04 06:45 7 13 VIS 10 km SCT 800ft BKN 1200ft 6.8 6.5 1029.6
15-04 06:35 6 11 VIS 10 km SCT 800ft BKN 1200ft 6.8 6.5 1029.7
15-04 06:25 6 11 VIS 10 km SCT 800ft BKN 1200ft 6.8 6.5 1029.7
15-04 06:15 6 11 VIS 10 km SCT 800ft BKN 1200ft 6.8 6.5 1029.6
15-04 06:05 5 10 VIS 10 km SCT 800ft BKN 1200ft 6.8 6.5 1029.6
15-04 05:55 5 10 VIS 10 km SCT 800ft BKN 1200ft 6.7 6.5 1029.6
15-04 05:45 5 09 VIS 10 km SCT 800ft BKN 1200ft 6.6 6.4 1029.5
15-04 05:35 5 09 VIS 10 km SCT 800ft BKN 1200ft 6.7 6.5 1029.6
15-04 05:25 5 09 VIS 10 km SCT 800ft BKN 1200ft 6.7 6.6 1029.5
15-04 05:15 5 09 VIS 10 km SCT 800ft BKN 1200ft 6.7 6.6 1029.6
15-04 05:05 5 10 VIS 10 km SCT 800ft BKN 1200ft 6.7 6.7 1029.5
15-04 04:55 4 08 VIS 10 km SCT 800ft BKN 1200ft 6.6 6.6 1029.5
15-04 04:45 5 09 VIS 10 km SCT 800ft BKN 1200ft 6.5 6.5 1029.5
15-04 04:35 5 09 VIS 10 km SCT 800ft BKN 1200ft 6.5 6.5 1029.5
15-04 04:25 5 10 VIS 10 km SCT 800ft BKN 1200ft 6.5 6.5 1029.5
15-04 04:15 5 09 VIS 10 km SCT 800ft BKN 1200ft 6.5 6.5 1029.5
15-04 04:05 4 08 VIS 10 km SCT 800ft BKN 1200ft 6.5 6.5 1029.7
15-04 03:55 4 08 VIS 10 km SCT 800ft BKN 1200ft 6.6 6.6 1029.8
15-04 03:45 4 08 VIS 10 km SCT 800ft BKN 1200ft 6.6 6.6 1029.8
15-04 03:35 5 10 VIS 10 km SCT 800ft BKN 1200ft 6.6 6.6 1029.9
15-04 03:25 6 11 VIS 10 km SCT 800ft BKN 1200ft 6.5 6.5 1029.9
15-04 03:15 6 11 VIS 10 km SCT 800ft BKN 1200ft 6.5 6.5 1029.9
15-04 03:05 6 12 VIS 10 km SCT 800ft BKN 1200ft 6.6 6.6 1029.9
15-04 02:55 6 12 VIS 10 km SCT 800ft BKN 1200ft 6.6 6.6 1030.0
15-04 02:45 6 11 VIS 10 km SCT 800ft BKN 1200ft 6.5 6.5 1030.1
15-04 02:35 6 12 VIS 10 km SCT 800ft BKN 1200ft 6.5 6.5 1030.1
15-04 02:25 5 10 VIS 10 km SCT 800ft BKN 1200ft 6.5 6.5 1030.2
15-04 02:15 5 10 VIS 10 km SCT 800ft BKN 1200ft 6.5 6.5 1030.2
15-04 02:05 6 12 VIS 10 km SCT 800ft BKN 1200ft 6.5 6.5 1030.2
15-04 01:55 7 13 VIS 10 km SCT 800ft BKN 1200ft 6.6 6.6 1030.3
15-04 01:45 5 10 VIS 10 km SCT 800ft BKN 1200ft 6.7 6.7 1030.3
15-04 01:35 5 09 VIS 10 km SCT 800ft BKN 1200ft 6.6 6.6 1030.3
15-04 01:25 5 09 VIS 10 km SCT 800ft BKN 1200ft 6.7 6.7 1030.4
15-04 01:15 4 07 VIS 10 km SCT 800ft BKN 1200ft 6.6 6.5 1030.6
15-04 01:05 4 08 VIS 10 km SCT 800ft BKN 1200ft 6.6 6.5 1030.6
15-04 00:55 4 07 VIS 10 km SCT 800ft BKN 1200ft 6.6 6.5 1030.7
15-04 00:45 5 09 VIS 10 km SCT 800ft BKN 1200ft 6.5 6.5 1030.6
15-04 00:35 5 09 VIS 10 km SCT 800ft BKN 1200ft 6.6 6.6 1030.6
15-04 00:25 6 11 VIS 10 km SCT 800ft BKN 1200ft 6.7 6.7 1030.6
15-04 00:15 5 10 VIS 10 km SCT 800ft BKN 1200ft 6.7 6.7 1030.7
15-04 00:05 6 12 VIS 10 km SCT 800ft BKN 1200ft 6.7 6.6 1030.7
14-04 23:55 6 11 VIS 10 km SCT 800ft BKN 1200ft 6.6 6.6 1030.7
14-04 23:45 6 11 VIS 10 km SCT 800ft BKN 1200ft 6.7 6.6 1030.8
14-04 23:35 7 13 VIS 10 km SCT 800ft BKN 1200ft 6.6 6.6 1030.8
14-04 23:25 6 12 VIS 10 km SCT 800ft BKN 1200ft 6.6 6.6 1030.9
14-04 23:15 6 12 VIS 10 km SCT 800ft BKN 1200ft 6.6 6.6 1030.9
14-04 23:05 4 08 VIS 10 km SCT 800ft BKN 1200ft 6.6 6.6 1030.9
14-04 22:55 5 10 VIS 10 km SCT 800ft BKN 1200ft 6.6 6.5 1030.9
14-04 22:45 5 09 VIS 10 km SCT 800ft BKN 1200ft 6.5 6.5 1030.9
14-04 22:35 6 11 VIS 10 km SCT 800ft BKN 1200ft 6.5 6.5 1031.0
14-04 22:25 6 11 VIS 10 km SCT 800ft BKN 1200ft 6.5 6.5 1031.0
14-04 22:15 5 10 VIS 10 km SCT 800ft BKN 1200ft 6.5 6.5 1031.0
14-04 22:05 5 10 VIS 10 km SCT 800ft BKN 1200ft 6.4 6.4 1031.0
14-04 21:55 5 10 VIS 10 km SCT 800ft BKN 1200ft 6.5 6.5 1031.0
14-04 21:45 5 10 VIS 10 km SCT 800ft BKN 1200ft 6.5 6.4 1031.1
14-04 21:35 5 09 VIS 10 km SCT 800ft BKN 1200ft 6.7 6.5 1031.1

Met data is updated every half hour and is for information only.
* Visibility, weather and cloud values are updated during the airport’s service hours only.
Flight planning documentation is available on opmet.dmi.dk.
For meteorological abbreviations, click here